Tracking 30743 objects as of 22-Jun-2025
HD Live streaming from Space Station
objects crossing your sky now

DELTA 1 DEB

Track DELTA 1 DEB now!
10-day predictions


NORAD ID: 21270
Int'l Code: 1975-052F
Perigee: 1,083.7 km
Apogee: 1,769.2 km
Inclination: 99.4 °
Period: 114.2 minutes
Semi major axis: 7797 km
RCS: 0.0854 m2 (small)
Launch date: June 12, 1975
Source: United States (US)
Launch site: AIR FORCE WESTERN TEST RANGE (AFWTR)

Note: This is SATELLITE DEBRIS
Your satellite tracking list
Your tracking list is empty




NASA's NSSDC Master Catalog

Two Line Element Set (TLE):
1 21270U 75052F   25172.71316822  .00001209  00000-0  48925-2 0  9990
2 21270  99.4482 268.5418 0439527 267.5205 255.9027 12.60880428563734
Source of the keplerian elements: AFSPC